Weather History for KCOU - January, 2014

Change the Weather History Date:

Sunday, January 5, 2014

  Actual Average Record
Temperature  
Mean Temperature 11 °F 30 °F  
Max Temperature 22 °F 38 °F 66 °F (1956)
Min Temperature 0 °F 21 °F -16 °F (1924)
Degree Days  
Heating Degree Days 54 36  
Month to date heating degree days 230 176  
Since 1 July heating degree days 2317 2171  
Cooling Degree Days 0 0  
Month to date cooling degree days 0 0  
Year to date cooling degree days 0 0  
Moisture  
Dew Point 6 °F    
Average Humidity 69    
Maximum Humidity 88    
Minimum Humidity 49    
Precipitation  
Precipitation 0.27 in 0.07 in 0.90 in (1955)
Month to date precipitation 0.47 0.33  
Year to date precipitation 0.47 0.33  
Snow  
Snow 4.80 in 0.20 in 4.80 in (2014)
Month to date snowfall 6.8 0.9  
Since 1 July snowfall 9.2 6.2  
Snow Depth 1.00 in    
Sea Level Pressure  
Sea Level Pressure 30.09 in    
Wind  
Wind Speed 21 mph (North)    
Max Wind Speed 35 mph    
Max Gust Speed 40 mph    
Visibility 3 miles    
Events Snow    
T = Trace of Precipitation, MM = Missing Value Source: NWS Daily Summary

Daily Weather History Graph

Daily Weather History Graph

Search for Another Location

Airport or City:

Trip Planner

Search our weather history database for the weather conditions in past years. The results will help you decide how hot, cold, wet, or windy it might be!

Date:

Astronomy

Jan. 05, 2014 Rise Set
Actual Time 7:27 AM CST 5:01 PM CST
Civil Twilight 6:57 AM CST 5:31 PM CST
Nautical Twilight 6:24 AM CST 6:04 PM CST
Astronomical Twilight 5:52 AM CST 6:36 PM CST
Moon 10:12 AM CST (1/5) 10:26 PM CST (1/5)
Length of Visible Light 10h 33m
Length of Day
9h 33m
Waxing Crescent, 25% of the Moon is Illuminated
Jan 5
Waxing Crescent
Jan 7
First Quarter
Jan 15
Full
Jan 23
Last Quarter
Jan 30
New

Hourly Weather History & Observations

Time (CST) Temp. Windchill Dew Point Humidity Pressure Visibility Wind Dir Wind Speed Gust Speed Precip Events Conditions
12:54 AM 21.0 °F 7.1 °F 16.0 °F 81% 30.00 in 10.0 mi North 16.1 mph - N/A   Overcast
1:28 AM 19.9 °F 6.2 °F 16.0 °F 85% 29.98 in 5.0 mi North 15.0 mph - 0.00 in Snow Light Snow
1:54 AM 19.9 °F 5.2 °F 15.1 °F 81% 30.00 in 2.5 mi North 17.3 mph - 0.01 in Snow Light Snow
2:29 AM 19.0 °F 5.6 °F 14.0 °F 81% 29.99 in 1.8 mi North 13.8 mph 21.9 mph 0.00 in Snow Light Snow
2:54 AM 18.0 °F 3.6 °F 14.0 °F 84% 29.99 in 1.5 mi NNE 15.0 mph - 0.01 in Snow Light Snow
3:17 AM 18.0 °F 1.3 °F 12.9 °F 81% 29.97 in 2.5 mi NNE 20.7 mph 24.2 mph 0.01 in Snow Light Snow
3:27 AM 18.0 °F 3.6 °F 12.9 °F 81% 29.96 in 3.0 mi NNE 15.0 mph - 0.01 in Snow Light Snow
3:34 AM 18.0 °F 4.2 °F 12.9 °F 81% 29.96 in 3.0 mi North 13.8 mph - 0.01 in Snow Light Snow
3:54 AM 18.0 °F 2.2 °F 12.9 °F 81% 29.99 in 5.0 mi North 18.4 mph - 0.01 in Snow Light Snow
4:01 AM 18.0 °F 3.1 °F 12.9 °F 81% 29.97 in 4.0 mi North 16.1 mph - 0.00 in Snow Light Snow
4:07 AM 18.0 °F 0.9 °F 12.9 °F 81% 29.96 in 2.5 mi North 21.9 mph 26.5 mph 0.00 in Snow Light Snow
4:18 AM 17.1 °F -1.4 °F 12.9 °F 84% 29.95 in 3.0 mi North 25.3 mph - 0.00 in Snow Light Snow
4:25 AM 17.1 °F 1.0 °F 12.9 °F 84% 29.96 in 3.0 mi North 18.4 mph - 0.00 in Snow Light Snow
4:36 AM 17.1 °F 1.5 °F 12.0 °F 81% 29.95 in 1.8 mi North 17.3 mph - 0.01 in Snow Light Snow
4:54 AM 17.1 °F 1.5 °F 12.0 °F 81% 29.99 in 1.5 mi North 17.3 mph - 0.01 in Snow Light Snow
5:11 AM 17.1 °F 1.0 °F 12.0 °F 81% 29.97 in 0.8 mi North 18.4 mph 27.6 mph 0.01 in Snow Light Snow
5:34 AM 16.0 °F 1.1 °F 12.0 °F 84% 29.97 in 1.0 mi North 15.0 mph - 0.03 in Snow Light Snow
5:54 AM 16.0 °F -0.4 °F 12.0 °F 84% 29.99 in 0.8 mi North 18.4 mph - 0.04 in Snow Light Snow
6:08 AM 15.1 °F -0.6 °F 12.0 °F 88% 29.97 in 0.8 mi North 16.1 mph 25.3 mph 0.01 in Snow Light Snow
6:31 AM 15.1 °F -0.6 °F 12.0 °F 88% 29.97 in 1.0 mi North 16.1 mph - 0.03 in   Mist
6:49 AM 15.8 °F -1.1 °F 10.4 °F 79% 29.98 in 2.0 mi North 19.6 mph - 0.03 in   Overcast
6:50 AM 15.1 °F -1.6 °F 10.9 °F 84% 30.01 in 2.0 mi North 18.4 mph - 0.03 in   Overcast
7:00 AM 15.1 °F -1.1 °F 10.9 °F 84% 29.98 in 1.8 mi North 17.3 mph - 0.01 in   Overcast
7:43 AM 14.0 °F -2.0 °F 10.0 °F 84% 29.99 in 1.2 mi North 16.1 mph 27.6 mph 0.02 in Snow Snow
7:54 AM 14.0 °F -3.9 °F 10.0 °F 84% 30.03 in 0.5 mi North 20.7 mph - 0.02 in Snow Snow
7:58 AM 14.0 °F -3.4 °F 10.0 °F 84% 29.99 in 0.2 mi North 19.6 mph - 0.00 in Snow Snow
8:54 AM 12.9 °F -5.7 °F 9.0 °F 84% 30.04 in 0.2 mi North 21.9 mph 29.9 mph 0.04 in Snow Snow
9:12 AM 12.9 °F -5.3 °F 9.0 °F 84% 30.03 in 0.5 mi North 20.7 mph - 0.01 in Snow Snow
9:32 AM 12.0 °F -5.1 °F 8.1 °F 84% 30.03 in 0.5 mi NNW 17.3 mph - 0.02 in Snow Snow
9:40 AM 12.0 °F -6.0 °F 8.1 °F 84% 30.02 in 0.5 mi North 19.6 mph 29.9 mph 0.02 in Snow Snow
9:49 AM 12.2 °F -7.5 °F 8.6 °F 85% 30.03 in 0.2 mi NNW 24.2 mph 28.8 mph 0.02 in Snow Snow
9:54 AM 12.0 °F -6.9 °F 7.0 °F 80% 30.09 in 0.2 mi NNW 21.9 mph 28.8 mph 0.02 in Snow Snow
10:03 AM 10.9 °F -9.2 °F 7.0 °F 84% 30.04 in 0.5 mi North 24.2 mph - 0.01 in Snow Snow
10:21 AM 10.9 °F -8.3 °F 7.0 °F 84% 30.05 in 0.2 mi NNW 21.9 mph - 0.02 in Snow Snow
10:51 AM 10.4 °F -8.2 °F 6.8 °F 85% 30.04 in 0.5 mi North 19.6 mph - 0.03 in Snow Snow
10:54 AM 10.9 °F -7.0 °F 7.0 °F 84% 30.09 in 0.5 mi NNW 18.4 mph - 0.04 in Snow Snow
11:32 AM 10.9 °F -9.2 °F 6.1 °F 81% 30.05 in 0.5 mi North 24.2 mph 34.5 mph 0.00 in Snow Snow
11:54 AM 10.9 °F -7.9 °F 6.1 °F 81% 30.09 in 0.5 mi NNW 20.7 mph 29.9 mph 0.01 in Snow Snow
12:54 PM 10.9 °F -8.3 °F 6.1 °F 81% 30.10 in 0.8 mi NNW 21.9 mph 31.1 mph 0.01 in Snow Light Snow
1:13 PM 10.9 °F -8.3 °F 5.0 °F 77% 30.06 in 0.8 mi North 21.9 mph 36.8 mph 0.01 in Snow Light Snow
1:25 PM 10.9 °F -9.2 °F 6.1 °F 81% 30.06 in 0.8 mi NNW 24.2 mph - 0.01 in Snow Light Snow
1:42 PM 10.9 °F -8.3 °F 6.1 °F 81% 30.07 in 0.8 mi NNW 21.9 mph 32.2 mph 0.02 in Snow Light Snow
1:52 PM 10.4 °F -10.3 °F 5.0 °F 79% 30.08 in 1.0 mi North 25.3 mph 40.3 mph 0.02 in Snow Light Snow
1:54 PM 10.9 °F -9.9 °F 5.0 °F 77% 30.12 in 1.0 mi North 26.5 mph 40.3 mph 0.02 in Snow Light Snow
2:15 PM 10.9 °F -9.6 °F 5.0 °F 77% 30.09 in 0.8 mi North 25.3 mph 38.0 mph 0.00 in Snow Light Snow
2:24 PM 10.9 °F -8.3 °F 5.0 °F 77% 30.09 in 1.2 mi NNW 21.9 mph - 0.00 in Snow Light Snow
2:39 PM 10.9 °F -11.9 °F 5.0 °F 77% 30.11 in 0.8 mi North 33.4 mph 40.3 mph 0.00 in Snow Light Snow
2:54 PM 10.9 °F -7.5 °F 6.1 °F 81% 30.17 in 1.0 mi NNW 19.6 mph - 0.00 in Snow Light Snow
3:41 PM 10.0 °F -8.6 °F 3.9 °F 76% 30.17 in 3.0 mi NNW 19.6 mph 32.2 mph 0.00 in Snow Blowing Snow
3:54 PM 10.0 °F -8.1 °F 1.0 °F 67% 30.23 in 9.0 mi NNW 18.4 mph 34.5 mph 0.00 in   Overcast
4:54 PM 9.0 °F -13.3 °F -4.0 °F 56% 30.28 in 4.0 mi NNW 28.8 mph 35.7 mph 0.00 in Snow Light Snow
5:54 PM 8.1 °F -10.7 °F -5.1 °F 55% 30.33 in 10.0 mi NW 18.4 mph - 0.00 in   Clear
6:54 PM 7.0 °F -13.6 °F -6.0 °F 55% 30.37 in 10.0 mi NW 21.9 mph 26.5 mph N/A   Partly Cloudy
7:54 PM 7.0 °F -15.6 °F -5.1 °F 58% 30.40 in 6.0 mi NNW 27.6 mph 35.7 mph N/A   Haze
8:54 PM 5.0 °F -15.7 °F -7.1 °F 58% 30.42 in 10.0 mi NW 20.7 mph 32.2 mph N/A   Scattered Clouds
9:54 PM 3.9 °F -16.6 °F -11.0 °F 50% 30.44 in 10.0 mi NW 19.6 mph 27.6 mph N/A   Clear
10:54 PM 1.9 °F -18.1 °F -15.0 °F 45% 30.45 in 10.0 mi NW 17.3 mph - N/A   Partly Cloudy
11:54 PM -0.0 °F -20.7 °F -15.0 °F 49% 30.45 in 10.0 mi NW 17.3 mph - N/A   Clear